Kingman, AZ

4:59 PM MST on June 22, 2017 (GMT -0700)
Kingman

Weather History for KIGM - May, 2013

Change the Weather History Date:

Friday, May 17, 2013

  Actual Average Record
Temperature  
Mean Temperature 71 °F 69 °F  
Max Temperature 83 °F 85 °F 100 °F (1937)
Min Temperature 58 °F 53 °F 33 °F (1908)
Degree Days  
Heating Degree Days 0 1  
Month to date heating degree days 18 42  
Since 1 July heating degree days 2899 3088  
Cooling Degree Days 6 6  
Month to date cooling degree days 80 67  
Year to date cooling degree days 120 98  
Growing Degree Days 20 (Base 50)    
Moisture  
Dew Point 31 °F    
Average Humidity 23    
Maximum Humidity 33    
Minimum Humidity 12    
Precipitation  
Precipitation 0.00 in 0.00 in 0.08 in (1993)
Month to date precipitation T 0.09  
Year to date precipitation 1.18 3.42  
Sea Level Pressure  
Sea Level Pressure 29.70 in    
Wind  
Wind Speed 14 mph (SSW)    
Max Wind Speed 32 mph    
Max Gust Speed 41 mph    
Visibility 10 miles    
Events      
T = Trace of Precipitation, MM = Missing Value Source: NWS Daily Summary

Daily Weather History Graph

Daily Weather History Graph

Search for Another Location

Airport or City:

Trip Planner

Search our weather history database for the weather conditions in past years. The results will help you decide how hot, cold, wet, or windy it might be!

Date:

Astronomy

May. 17, 2013 Rise Set
Actual Time 5:29 AM MST 7:34 PM MST
Civil Twilight 5:01 AM MST 8:03 PM MST
Nautical Twilight 4:27 AM MST 8:37 PM MST
Astronomical Twilight 3:49 AM MST 9:15 PM MST
Moon 11:59 AM MST (5/17) 12:35 AM MST (5/17)
Length of Visible Light 15h 01m
Length of Day
14h 04m
Waxing Crescent, 46% of the Moon is Illuminated
May 17
Waxing Crescent
May 17
First Quarter
May 24
Full
May 31
Last Quarter
Jun 8
New

Hourly Weather History & Observations

Time (MST) Temp. Dew Point Humidity Pressure Visibility Wind Dir Wind Speed Gust Speed Precip Events Conditions
12:51 AM 71.1 °F 21.0 °F 15% 29.62 in 10.0 mi SSW 11.5 mph - N/A   Clear
1:51 AM 69.1 °F 21.9 °F 17% 29.63 in 10.0 mi South 9.2 mph - N/A   Clear
2:51 AM 66.9 °F 28.0 °F 23% 29.63 in 10.0 mi SSE 6.9 mph - N/A   Clear
3:51 AM 64.0 °F 28.0 °F 26% 29.64 in 10.0 mi South 8.1 mph - N/A   Clear
4:51 AM 64.9 °F 28.9 °F 26% 29.64 in 10.0 mi SSE 8.1 mph - N/A   Clear
5:51 AM 57.9 °F 28.9 °F 33% 29.69 in 10.0 mi South 5.8 mph - N/A   Clear
6:51 AM 66.9 °F 30.9 °F 26% 29.68 in 10.0 mi SW 3.5 mph - N/A   Clear
7:51 AM 72.0 °F 32.0 °F 23% 29.70 in 10.0 mi West 10.4 mph - N/A   Clear
8:51 AM 73.9 °F 33.1 °F 22% 29.71 in 10.0 mi SW 17.3 mph - N/A   Clear
9:51 AM 73.9 °F 33.1 °F 22% 29.71 in 10.0 mi SW 12.7 mph - N/A   Clear
10:51 AM 75.0 °F 34.0 °F 22% 29.73 in 10.0 mi SW 21.9 mph - N/A   Clear
11:51 AM 73.9 °F 34.0 °F 23% 29.73 in 10.0 mi SSW 17.3 mph - N/A   Mostly Cloudy
12:51 PM 78.1 °F 33.1 °F 19% 29.71 in 10.0 mi SSW 23.0 mph 29.9 mph N/A   Scattered Clouds
1:51 PM 80.6 °F 33.8 °F 18% 29.89 in 10.0 mi SSW 27.6 mph 39.1 mph N/A   Clear
2:51 PM 81.0 °F 32.0 °F 17% 29.68 in 10.0 mi SSW 26.5 mph 38.0 mph N/A   Clear
3:51 PM 81.0 °F 32.0 °F 17% 29.68 in 10.0 mi SW 25.3 mph 34.5 mph N/A   Clear
4:51 PM 80.1 °F 32.0 °F 17% 29.68 in 10.0 mi SW 26.5 mph 34.5 mph N/A   Clear
5:51 PM 78.1 °F 33.1 °F 19% 29.69 in 10.0 mi SW 21.9 mph 29.9 mph N/A   Clear
6:51 PM 75.0 °F 32.0 °F 21% 29.69 in 10.0 mi SW 13.8 mph 20.7 mph N/A   Clear
7:51 PM 73.0 °F 32.0 °F 22% 29.69 in 10.0 mi SW 13.8 mph - N/A   Clear
8:51 PM 66.9 °F 30.9 °F 26% 29.72 in 10.0 mi South 6.9 mph - N/A   Clear
9:51 PM 68.0 °F 30.9 °F 25% 29.73 in 10.0 mi South 10.4 mph - N/A   Clear
10:51 PM 64.9 °F 30.9 °F 28% 29.74 in 10.0 mi South 9.2 mph - N/A   Clear
11:51 PM 64.0 °F 33.1 °F 31% 29.74 in 10.0 mi South 9.2 mph - N/A   Clear